FW9738 Weather Reports


time (UTC)temp
C
wind
direction
speed
KPH
gust
KPH
rain 1hr
cm
rain 24hr
cm
rain mn
cm
humidity
%
barometer
mb
20260506182327 26 68 1.6 11.3 0.00 0.00 0.00 68 997.9
20260506180757 26 0 0.0 6.4 0.00 0.00 0.00 68 997.9
20260506180248 26 113 0.0 6.4 0.00 0.00 0.00 68 997.9
20260506175736 26 68 0.0 9.7 0.00 0.00 0.00 68 998.0
20260506175226 27 0 4.8 11.3 0.00 0.00 0.00 67 998.1
20260506174716 27 23 0.0 12.9 0.00 0.00 0.00 66 998.1
20260506174207 27 45 1.6 12.9 0.00 0.00 0.00 65 998.2
20260506173657 26 68 0.0 9.7 0.00 0.00 0.00 70 998.4
20260506173146 27 338 0.0 9.7 0.00 0.00 0.00 65 998.6
20260506172126 27 0 6.4 11.3 0.00 0.00 0.00 64 998.9
20260506171106 26 23 6.4 12.9 0.00 0.00 0.00 69 999.0
20260506170556 26 68 3.2 9.7 0.00 0.00 0.00 67 999.1
20260506170046 26 68 0.0 11.3 0.00 0.00 0.00 67 999.0
20260506165537 27 45 4.8 11.3 0.00 0.00 0.00 67 999.4
20260506164514 26 68 3.2 11.3 0.00 0.00 0.00 69 999.5
20260506164004 26 90 0.0 17.7 0.00 0.00 0.00 67 999.6
20260506163455 26 23 0.0 17.7 0.00 0.00 0.00 67 999.5
20260506162945 26 338 4.8 9.7 0.00 0.00 0.00 67 999.8
20260506162435 25 338 0.0 11.3 0.00 0.00 0.00 69 1000.0
20260506161926 26 45 3.2 11.3 0.00 0.00 0.00 69 999.8
20260506161414 26 45 1.6 11.3 0.00 0.00 0.00 69 1000.0
20260506160905 26 23 0.0 11.3 0.00 0.00 0.00 70 999.9
20260506160355 26 23 3.2 11.3 0.00 0.00 0.00 70 999.8
20260506155844 26 68 3.2 9.7 0.00 0.00 0.00 70 1000.0
20260506155334 25 23 0.0 12.9 0.00 0.00 0.00 70 1000.2
20260506153254 25 315 3.2 11.3 0.00 0.00 0.00 69 1000.7
20260506152743 25 90 0.0 11.3 0.00 0.00 0.00 72 1000.8
20260506152233 25 0 1.6 9.7 0.00 0.00 0.00 72 1000.9
20260506151723 25 23 1.6 9.7 0.00 0.00 0.00 72 1001.0
20260506151213 25 315 0.0 3.2 0.00 0.00 0.00 70 1001.1
20260506150703 25 0 0.0 3.2 0.00 0.00 0.00 72 1001.3
20260506150153 25 293 0.0 3.2 0.00 0.00 0.00 71 1001.5
20260506145642 24 270 0.0 6.4 0.00 0.00 0.00 73 1001.3
20260506144623 25 338 1.6 6.4 0.00 0.00 0.00 75 1001.5
20260506144112 24 90 0.0 3.2 0.00 0.00 0.00 76 1001.7
20260506143603 24 68 0.0 6.4 0.00 0.00 0.00 76 1001.6
20260506143052 25 90 0.0 6.4 0.00 0.00 0.00 76 1001.8
20260506142542 24 338 0.0 3.2 0.00 0.00 0.00 79 1001.9
20260506142031 24 68 0.0 3.2 0.00 0.00 0.00 77 1001.9
20260506141523 23 23 0.0 3.2 0.00 0.00 0.00 79 1001.8
20260506141012 23 0 0.0 0.0 0.00 0.00 0.00 78 1001.9
20260506140501 23 113 0.0 9.7 0.00 0.00 0.00 78 1002.1
20260506135952 22 90 0.0 9.7 0.00 0.00 0.00 81 1001.9
20260506135442 23 45 0.0 6.4 0.00 0.00 0.00 82 1002.1
20260506134932 23 293 0.0 0.0 0.00 0.00 0.00 79 1001.8
20260506134421 22 315 0.0 0.0 0.00 0.00 0.00 79 1002.3
20260506133400 22 338 0.0 0.0 0.00 0.00 0.00 80 1002.3
20260506132850 22 45 0.0 0.0 0.00 0.00 0.00 79 1002.2
20260506132340 22 315 0.0 0.0 0.00 0.00 0.00 80 1002.2
20260506131831 22 135 0.0 0.0 0.00 0.00 0.00 80 1002.3
20260506131321 22 68 0.0 0.0 0.00 0.00 0.00 81 1002.2
20260506130810 21 68 0.0 0.0 0.00 0.00 0.00 82 1002.1
20260506130300 21 113 0.0 0.0 0.00 0.00 0.00 83 1002.4
20260506125240 21 158 0.0 0.0 0.00 0.00 0.00 83 1002.2
20260506124730 20 113 0.0 0.0 0.00 0.00 0.00 84 1002.3
20260506124220 20 113 0.0 0.0 0.00 0.00 0.00 86 1002.2
20260506123710 20 113 0.0 0.0 0.00 0.00 0.00 87 1002.1
20260506123159 20 113 0.0 0.0 0.00 0.00 0.00 87 1002.3
20260506122649 19 158 0.0 0.0 0.00 0.00 0.00 88 1002.0
20260506122140 18 158 0.0 0.0 0.00 0.00 0.00 90 1001.9
20260506121629 18 135 0.0 0.0 0.00 0.00 0.00 90 1002.2
20260506121118 18 135 0.0 0.0 0.00 0.00 0.00 91 1002.1
20260506120059 16 203 0.0 0.0 0.00 0.00 0.00 95 1002.2
20260506115039 15 203 0.0 0.0 0.00 0.00 0.00 97 1002.3
20260506114528 15 203 0.0 0.0 0.00 0.00 0.00 97 1002.1
20260506114018 14 203 0.0 0.0 0.00 0.00 0.00 98 1002.1
20260506113509 14 203 0.0 0.0 0.00 0.00 0.00 98 1002.0
20260506112958 14 203 0.0 0.0 0.00 0.00 0.00 98 1001.9
20260506111938 13 180 0.0 0.0 0.00 0.00 0.00 99 1001.6
20260506111428 13 180 0.0 0.0 0.00 0.00 0.00 98 1002.1
20260506110917 13 180 0.0 0.0 0.00 0.00 0.00 99 1002.0
20260506105858 13 225 0.0 0.0 0.00 0.00 0.00 99 1002.2
20260506105347 13 203 0.0 0.0 0.00 0.00 0.00 99 1001.7
20260506104837 13 203 0.0 0.0 0.00 0.00 0.00 99 1001.9
20260506103817 13 225 0.0 0.0 0.00 0.00 0.00 97 1001.9
20260506102757 13 158 0.0 0.0 0.00 0.00 0.00 98 1001.6
20260506102246 13 135 0.0 0.0 0.00 0.00 0.00 99 1001.5
20260506101737 13 135 0.0 0.0 0.00 0.00 0.00 98 1001.7
20260506100716 13 135 0.0 0.0 0.00 0.00 0.00 98 1001.5
20260506100206 13 135 0.0 0.0 0.00 0.00 0.00 97 1001.8
20260506095656 14 158 0.0 0.0 0.00 0.00 0.00 97 1001.6
20260506095146 14 158 0.0 0.0 0.00 0.00 0.00 97 1001.5
20260506094126 14 135 0.0 0.0 0.00 0.00 0.00 97 1001.5
20260506093616 15 135 0.0 0.0 0.00 0.00 0.00 97 1001.6
20260506093106 15 158 0.0 0.0 0.00 0.00 0.00 98 1001.3
20260506092045 15 158 0.0 0.0 0.00 0.00 0.00 97 1001.2
20260506091535 14 180 0.0 0.0 0.00 0.00 0.00 97 1001.3
20260506091025 14 158 0.0 0.0 0.00 0.00 0.00 96 1001.2
20260506090005 14 158 0.0 0.0 0.00 0.00 0.00 97 1001.1
20260506085455 14 158 0.0 0.0 0.00 0.00 0.00 97 1001.3
20260506084945 13 180 0.0 0.0 0.00 0.00 0.00 97 1001.5
20260506084434 13 158 0.0 0.0 0.00 0.00 0.00 97 1001.3
20260506083925 13 158 0.0 0.0 0.00 0.00 0.00 97 1001.3
20260506083414 13 158 0.0 0.0 0.00 0.00 0.00 97 1001.5
20260506082905 13 158 0.0 0.0 0.00 0.00 0.00 97 1001.3
20260506081843 13 135 0.0 0.0 0.00 0.00 0.00 97 1001.5
20260506081334 13 135 0.0 0.0 0.00 0.00 0.00 97 1001.7
20260506080823 13 135 0.0 0.0 0.00 0.00 0.00 97 1001.9
20260506080313 13 135 0.0 0.0 0.00 0.00 0.00 98 1001.7
20260506073213 16 180 0.0 0.0 0.00 0.00 0.00 96 1002.0
20260506072702 16 180 0.0 0.0 0.00 0.00 0.00 96 1001.9
20260506072153 16 180 0.0 0.0 0.00 0.00 0.00 96 1002.1
20260506071642 16 180 0.0 0.0 0.00 0.00 0.00 96 1002.2
20260506071133 15 180 0.0 0.0 0.00 0.00 0.00 96 1002.1
20260506070622 15 203 0.0 0.0 0.00 0.00 0.00 95 1002.2
20260506061951 16 158 0.0 0.0 0.00 0.00 0.00 95 1003.3
20260506061441 16 180 0.0 0.0 0.00 0.00 0.00 95 1003.1
20260506060932 16 203 0.0 0.0 0.00 0.00 0.00 94 1003.3
20260506060422 16 203 0.0 0.0 0.00 0.00 0.00 94 1003.5
20260506050940 16 225 0.0 0.0 0.00 0.00 0.00 95 1003.8
20260506050430 16 203 0.0 0.0 0.00 0.00 0.00 95 1003.7
20260506044900 17 180 0.0 0.0 0.00 0.00 0.00 94 1004.1
20260506044351 17 158 0.0 0.0 0.00 0.00 0.00 94 1004.2
20260506043839 17 158 0.0 0.0 0.00 0.00 0.00 94 1004.4
20260506042819 17 180 0.0 0.0 0.00 0.00 0.00 93 1004.7
20260506042309 17 203 0.0 0.0 0.00 0.00 0.00 93 1004.7
20260506041759 17 203 0.0 0.0 0.00 0.00 0.00 94 1004.7
20260506041249 17 203 0.0 0.0 0.00 0.00 0.00 94 1004.8
20260506040230 17 203 0.0 0.0 0.00 0.00 0.00 95 1004.9
20260506035720 17 180 0.0 0.0 0.00 0.00 0.00 95 1005.0
20260506035209 17 203 0.0 0.0 0.00 0.00 0.00 95 1004.9
20260506034659 17 225 0.0 0.0 0.00 0.00 0.00 95 1005.1
20260506034149 17 158 0.0 0.0 0.00 0.00 0.00 95 1004.9
20260506033639 17 158 0.0 0.0 0.00 0.00 0.00 95 1005.1
20260506033128 17 225 0.0 0.0 0.00 0.00 0.00 94 1004.9
20260506032618 17 135 0.0 0.0 0.00 0.00 0.00 94 1005.0
20260506032108 17 203 0.0 0.0 0.00 0.00 0.00 94 1005.0
20260506031557 17 203 0.0 0.0 0.00 0.00 0.00 94 1005.2
20260506031047 17 225 0.0 0.0 0.00 0.00 0.00 93 1005.0
20260506030541 17 180 0.0 0.0 0.00 0.00 0.00 94 1004.9
20260506030028 17 203 0.0 0.0 0.00 0.00 0.00 94 1005.2
20260506025009 17 180 0.0 0.0 0.00 0.00 0.00 93 1005.2
20260506024457 17 180 0.0 0.0 0.00 0.00 0.00 94 1005.3
20260506023948 17 180 0.0 0.0 0.00 0.00 0.00 94 1005.5
20260506023437 17 158 0.0 0.0 0.00 0.00 0.00 94 1005.4
20260506022927 16 203 0.0 0.0 0.00 0.00 0.00 94 1005.6
20260506022417 16 203 0.0 0.0 0.00 0.00 0.00 94 1005.5
20260506021907 16 135 0.0 0.0 0.00 0.00 0.00 94 1005.6
20260506021357 16 158 0.0 0.0 0.00 0.00 0.00 94 1005.7
20260506020337 16 135 0.0 0.0 0.00 0.00 0.00 94 1005.6
20260506015827 16 135 0.0 0.0 0.00 0.00 0.00 94 1005.6
20260506015316 16 135 0.0 0.0 0.00 0.00 0.00 94 1005.5
20260506014806 16 135 0.0 0.0 0.00 0.00 0.00 94 1005.4
20260506014257 16 135 0.0 0.0 0.00 0.00 0.00 94 1005.4
20260506013747 16 135 0.0 0.0 0.00 0.00 0.00 95 1005.4
20260506013235 16 135 0.0 0.0 0.00 0.00 0.00 95 1005.4
20260506012725 16 135 0.0 0.0 0.00 0.00 0.00 95 1005.4
20260506012216 16 113 0.0 0.0 0.00 0.00 0.00 95 1005.1
20260506011705 16 113 0.0 0.0 0.00 0.00 0.00 95 1005.4
20260506011155 16 113 0.0 0.0 0.00 0.00 0.00 95 1005.0
20260506010645 16 113 0.0 0.0 0.00 0.00 0.00 95 1005.2
20260506010135 16 135 0.0 0.0 0.00 0.00 0.00 95 1005.3
20260506005625 16 158 0.0 0.0 0.00 0.00 0.00 94 1005.2
20260506005114 16 180 0.0 0.0 0.00 0.00 0.00 94 1005.3
20260506004605 16 225 0.0 0.0 0.00 0.00 0.00 94 1005.1
20260506004055 16 203 0.0 0.0 0.00 0.00 0.00 93 1004.9
20260506003545 16 203 0.0 0.0 0.00 0.00 0.00 93 1005.0
20260506003044 16 203 0.0 0.0 0.00 0.00 0.00 93 1005.1
20260506002525 16 180 0.0 0.0 0.00 0.00 0.00 93 1005.0
20260506002015 16 203 0.0 0.0 0.00 0.00 0.00 93 1005.0
20260506001504 16 180 0.0 0.0 0.00 0.00 0.00 93 1004.5
20260506000954 16 180 0.0 0.0 0.00 0.00 0.00 93 1004.8
20260505235934 16 203 0.0 0.0 0.00 0.00 0.00 92 1004.6
20260505235424 16 203 0.0 0.0 0.00 0.00 0.00 92 1004.6
20260505234405 16 225 0.0 0.0 0.00 0.00 0.00 92 1004.5
20260505233852 16 203 0.0 0.0 0.00 0.00 0.00 92 1004.3
20260505233344 16 225 0.0 0.0 0.00 0.00 0.00 91 1004.4
20260505232833 17 203 0.0 3.2 0.00 0.00 0.00 91 1004.2
20260505232323 17 225 0.0 3.2 0.00 0.00 0.00 90 1004.5
20260505231812 18 248 0.0 3.2 0.00 0.00 0.00 87 1004.2
20260505231304 18 225 0.0 0.0 0.00 0.00 0.00 88 1004.4
20260505230752 18 225 0.0 0.0 0.00 0.00 0.00 89 1004.3
20260505230244 18 225 0.0 0.0 0.00 0.00 0.00 89 1004.2
20260505225222 18 203 0.0 0.0 0.00 0.00 0.00 89 1004.3
20260505224712 18 203 0.0 0.0 0.00 0.00 0.00 87 1004.4
20260505224203 18 203 0.0 0.0 0.00 0.00 0.00 87 1003.8
20260505223652 18 203 0.0 0.0 0.00 0.00 0.00 87 1003.9
20260505223142 18 203 0.0 0.0 0.00 0.00 0.00 87 1003.7
20260505222121 20 293 0.0 0.0 0.00 0.00 0.00 84 1003.9
20260505221612 19 293 0.0 0.0 0.00 0.00 0.00 84 1004.1
20260505221101 19 0 0.0 0.0 0.00 0.00 0.00 84 1003.7
20260505220552 19 0 0.0 0.0 0.00 0.00 0.00 83 1003.6
20260505220041 19 0 0.0 0.0 0.00 0.00 0.00 82 1003.4
20260505215531 20 0 0.0 0.0 0.00 0.00 0.00 81 1003.6
20260505215021 20 0 0.0 0.0 0.00 0.00 0.00 79 1003.5
20260505214514 20 23 0.0 0.0 0.00 0.00 0.00 79 1003.8
20260505214001 21 23 0.0 0.0 0.00 0.00 0.00 77 1003.4
20260505213451 21 23 0.0 0.0 0.00 0.00 0.00 76 1003.3
20260505212941 21 23 0.0 0.0 0.00 0.00 0.00 76 1003.3
20260505212431 21 23 0.0 0.0 0.00 0.00 0.00 75 1003.4
20260505211919 22 23 0.0 0.0 0.00 0.00 0.00 74 1003.3
20260505211410 22 23 0.0 0.0 0.00 0.00 0.00 74 1003.2
20260505210859 22 23 0.0 0.0 0.00 0.00 0.00 73 1003.1
20260505210351 22 23 0.0 3.2 0.00 0.00 0.00 72 1003.3
20260505205839 22 0 0.0 6.4 0.00 0.00 0.00 71 1003.2
20260505204309 23 23 0.0 9.7 0.00 0.00 0.00 68 1003.1
20260505203800 23 23 6.4 11.3 0.00 0.00 0.00 67 1003.0
20260505202229 25 23 1.6 6.4 0.00 0.00 0.00 63 1002.6
20260505201718 25 23 3.2 9.7 0.00 0.00 0.00 64 1002.7
20260505201211 24 23 3.2 9.7 0.00 0.00 0.00 65 1002.8
20260505200659 25 0 3.2 6.4 0.00 0.00 0.00 64 1002.7
20260505200148 25 23 1.6 11.3 0.00 0.00 0.00 63 1002.6
20260505195638 24 0 3.2 11.3 0.00 0.00 0.00 64 1002.8
20260505195128 25 0 3.2 12.9 0.00 0.00 0.00 62 1002.9
20260505194619 25 0 6.4 12.9 0.00 0.00 0.00 62 1002.8
20260505194108 25 338 0.0 9.7 0.00 0.00 0.00 61 1003.0
20260505193558 25 338 4.8 9.7 0.00 0.00 0.00 61 1003.0
20260505193048 26 45 0.0 9.7 0.00 0.00 0.00 60 1002.7
20260505192027 26 0 0.0 6.4 0.00 0.00 0.00 58 1002.7
20260505191517 25 0 3.2 6.4 0.00 0.00 0.00 62 1002.7
20260505191007 26 135 0.0 6.4 0.00 0.00 0.00 61 1002.5
20260505190457 26 45 0.0 11.3 0.00 0.00 0.00 59 1002.7
20260505185947 25 0 1.6 11.3 0.00 0.00 0.00 61 1002.8
20260505185437 26 0 0.0 9.7 0.00 0.00 0.00 59 1002.5
20260505184927 26 90 0.0 6.4 0.00 0.00 0.00 57 1002.7
20260505184417 26 23 0.0 6.4 0.00 0.00 0.00 59 1002.9
20260505183906 26 90 0.0 9.7 0.00 0.00 0.00 58 1002.8
20260505183356 25 23 4.8 11.3 0.00 0.00 0.00 61 1003.0